Terminal Aerodrome Forecast
Issued by NWS Green Bay, WI

Home | Current Version | Previous Version | Graphics & Text | Print | Product List | Glossary On
Versions: 1 2 3 4 5 6 7 8 9 10 11 12 13 14 15 16 17
000
FTUS43 KGRB 011140
TAFGRB
TAF
KGRB 011140Z 0112/0212 27006KT 6SM -RASN BR SCT008 BKN100
      TEMPO 0112/0114 6SM -SHSN BKN008
     FM011400 28010KT P6SM OVC015
     FM011700 28011KT P6SM BKN025
     FM012300 29008KT P6SM BKN035 BKN050=

USA.gov is the U.S. government's official web portal to all federal, state and local government web resources and services.